DELTA 1 DEB

Satellite information

Favourite Embed

Satellite Type and Status

DEBRISIN ORBIT

Key statistics

Satellite DELTA 1 DEB at a glance.

Uptime

17292

Days in orbit

Revolutions

≈ 14.1

Per day

Orbit

SSO

Sun Synchronous Orbit

Inclination

98.9

Latest

Satellite identification and parameters

Extended collection of information and parameters for DELTA 1 DEB.

Object identification

Identified? True

Debris? True

Object name: DELTA 1 DEB

International designator: 1978-026HZ

Object number (NORAD): 37638

Object ID (CCSDS): 37638

Country: UNITED STATES OF AMERICA (US)

Current information (Y/N): Y

RCS size: SMALL

Orbital parameters

Period: 101.879 minutes

Inclination: 98.8665 deg

SMA: 7225.746 km

Apoapsis: 888.841 km

Periapsis: 806.381 km

RAAN: 85.2825 deg

Eccentricy: 0.005706

Argument of periapsis: 355.4276 deg

Mean anomaly: 4.6368 deg

Mean motion: 14.134443 rev/day

Mean motion (dot): 0.00000763 rev/day2

B* drag term: 0.00042284 1/REarth

Two-line elements (TLE)

Creation date: July 5, 2025, 4:36 a.m.

Reference frame: TEME

Reference center: EARTH

Epoch: July 4, 2025, 10:44 a.m. UTC

TLE line 0: 0 DELTA 1 DEB

TLE line 1: 1 37638U 78026HZ 25185.44751013 .00000763 00000-0 42284-3 0 9995

TLE line 2: 2 37638 98.8665 85.2825 0057060 355.4276 4.6368 14.13444300549527

Live tracking on map

Real-time ground track for satellite DELTA 1 DEB.

In-orbit conjunctions

A list of the most updated potential collisions computed for object DELTA 1 DEB.

Target Orbit TCA Probability of collision Miss distance Type
SL-16 R/B LEO 2025-04-08 09:40:06 0.0001117206 625.0 (m) ROCKET BODY

Associated space launch

Earth observation satellite

DELTA 1 DEB was lifted into orbit during the mission ‘Delta 2910 | Landsat 3’, on board a Delta 2910 space rocket.

The launch took place on March 5, 1978, 5:54 p.m. from Space Launch Complex 2W.

For more information about the launch, click the button.

Launch to space Delta 2910 | Landsat 3
Delta 2910 | Landsat 3

Agency: N/A

Status: Launch Successful

Launch date: March 5, 1978, 5:54 p.m. UTC

Rocket: Delta 2910

Launch pad: Space Launch Complex 2W

Location: Vandenberg SFB, CA, USA

...

Latest news about this satellite

There are no fresh news available about this satellite. Check back as we update our databases every day.


Newsletter sign-up

Weekly statistics, charts and insights to help you stay on top of the space industry.